Bookmark and Share
Track history (hours):
 

Pilot Vessel Akarana

Last reported at 2014-Apr-24 15:13 UTC. Time now 2014-Apr-24 22:11 UTC.
Position S 36°49' E 174°49'.

Length 15 m; draft 1.6 m.

Type: Pilot. MMSI: 512000344.

NotesDate/timePositionNaut miles runAvg speedWind from/ knotsBaromVisibWave heightAir tempDewpointWater temp
2014-Apr-24 15:13S 36°49' E 174°49'3 0.9
2014-Apr-24 12:09S 36°51' E 174°47'5 7.9
2014-Apr-24 11:32S 36°46' E 174°49'2 0.5
2014-Apr-24 08:04S 36°48' E 174°49'3 0.9
2014-Apr-24 04:13S 36°51' E 174°47'0 0.0
2014-Apr-24 00:27S 36°51' E 174°47'0 0.0
2014-Apr-23 04:15S 36°51' E 174°47'0 0.0
2014-Apr-23 03:29S 36°51' E 174°47'4 2.2
2014-Apr-23 01:32S 36°47' E 174°49'4 1.7
2014-Apr-22 23:15S 36°50' E 174°47'6 8.3
2014-Apr-22 22:32S 36°45' E 174°50'6 1.0
2014-Apr-22 16:08S 36°51' E 174°47'0 0.0
2014-Apr-22 15:26S 36°51' E 174°47'0 0.0
2014-Apr-22 14:32S 36°51' E 174°47'0 0.0
2014-Apr-22 13:28S 36°51' E 174°47'4 2.0
2014-Apr-22 11:30S 36°47' E 174°48'1 0.4
2014-Apr-22 09:33S 36°48' E 174°49'3 0.5
2014-Apr-22 02:14S 36°51' E 174°47'812.0
2014-Apr-22 01:33S 36°43' E 174°52'8 3.4
2014-Apr-21 23:08S 36°50' E 174°47'5 9.2
2014-Apr-21 22:33S 36°45' E 174°50'5 5.2
2014-Apr-21 21:31S 36°50' E 174°47'2 1.7
2014-Apr-21 20:23S 36°50' E 174°49'2 2.4
2014-Apr-21 19:33S 36°51' E 174°47'4 2.7
2014-Apr-21 18:16S 36°48' E 174°49'4 5.3
2014-Apr-21 17:32S 36°44' E 174°51'7 7.5
2014-Apr-21 16:33S 36°51' E 174°47'0 0.0
2014-Apr-21 15:33S 36°51' E 174°47'3 0.2
2014-Apr-20 23:05S 36°48' E 174°49'3 5.2
2014-Apr-20 22:31S 36°51' E 174°47'0 0.0
2014-Apr-20 21:33S 36°51' E 174°47'0 0.0
2014-Apr-20 20:26S 36°51' E 174°47'0 0.0
2014-Apr-20 19:13S 36°51' E 174°47'0 0.0
2014-Apr-20 17:22S 36°51' E 174°47'0 0.0
2014-Apr-20 16:22S 36°51' E 174°47'3 4.3
2014-Apr-20 15:33S 36°47' E 174°48'4 3.8
2014-Apr-20 14:33S 36°44' E 174°51'5 1.0
2014-Apr-20 09:33S 36°49' E 174°49'2 0.6
2014-Apr-20 06:07S 36°50' E 174°47'0 0.2
2014-Apr-20 03:18S 36°51' E 174°47'0 0.0
2014-Apr-20 02:18S 36°51' E 174°47'5 5.8
2014-Apr-20 01:30S 36°46' E 174°49'5 1.1
2014-Apr-19 21:25S 36°51' E 174°47'0 0.0
2014-Apr-19 19:31S 36°51' E 174°47'0 0.0
2014-Apr-19 18:16S 36°51' E 174°47'0 0.0
2014-Apr-19 17:31S 36°51' E 174°47'0 0.0
2014-Apr-19 11:13S 36°51' E 174°47'2 3.1
2014-Apr-19 10:33S 36°49' E 174°49'2 2.0
2014-Apr-19 09:30S 36°51' E 174°47'2 2.1
2014-Apr-19 08:30S 36°49' E 174°49'2 2.1
2014-Apr-19 07:31S 36°51' E 174°47'5 2.6
2014-Apr-19 05:33S 36°46' E 174°49'5 3.4
2014-Apr-19 04:05S 36°51' E 174°47'0 0.0
2014-Apr-18 23:21S 36°51' E 174°47'0 0.0
2014-Apr-18 22:33S 36°51' E 174°47'0 0.0
2014-Apr-18 21:12S 36°51' E 174°47'3 1.8
2014-Apr-18 19:31S 36°48' E 174°49'3 1.5
2014-Apr-18 17:29S 36°51' E 174°47'5 2.4
2014-Apr-18 15:32S 36°46' E 174°49'5 2.2
2014-Apr-18 13:21S 36°51' E 174°47'0 0.0
2014-Apr-18 12:32S 36°51' E 174°47'5 5.1
2014-Apr-18 11:30S 36°46' E 174°49'2 2.5
2014-Apr-18 10:33S 36°48' E 174°49'3 2.9
2014-Apr-18 09:30S 36°51' E 174°47'0 0.0
2014-Apr-18 08:33S 36°51' E 174°47'0 0.0
2014-Apr-18 07:33S 36°51' E 174°47'0 0.0
2014-Apr-18 06:32S 36°51' E 174°47'0 0.0
2014-Apr-18 05:32S 36°51' E 174°47'0 0.0
2014-Apr-18 04:17S 36°51' E 174°47'3 1.6
2014-Apr-18 02:13S 36°48' E 174°49'3 0.8
2014-Apr-17 22:30S 36°50' E 174°47'0 0.3
2014-Apr-17 21:33S 36°51' E 174°47'0 0.1
2014-Apr-17 20:26S 36°51' E 174°47'0 0.1
2014-Apr-17 19:31S 36°51' E 174°47'0 0.0
2014-Apr-17 18:33S 36°51' E 174°47'4 0.7
2014-Apr-17 12:22S 36°47' E 174°49'2 2.1
2014-Apr-17 11:33S 36°48' E 174°50'2 2.1
2014-Apr-17 10:33S 36°46' E 174°49'5 3.5
2014-Apr-17 09:09S 36°51' E 174°47'0 0.0
2014-Apr-17 06:11S 36°51' E 174°47'3 0.6
2014-Apr-17 01:15S 36°48' E 174°49'3 4.0
2014-Apr-17 00:30S 36°51' E 174°47'0 0.0
2014-Apr-16 19:10S 36°51' E 174°47'6 9.4
2014-Apr-16 18:32S 36°45' E 174°49'6 6.0
2014-Apr-16 17:33S 36°51' E 174°47'2 0.7
2014-Apr-16 14:07S 36°49' E 174°49'1 1.2
2014-Apr-16 13:22S 36°48' E 174°49'1 1.3
2014-Apr-16 12:28S 36°47' E 174°48'3 1.0
2014-Apr-16 09:19S 36°50' E 174°47'0 0.0
2014-Apr-16 01:19S 36°51' E 174°47'3 4.3
2014-Apr-16 00:33S 36°48' E 174°50'3 3.2
2014-Apr-15 23:33S 36°45' E 174°50'3 0.8
2014-Apr-15 19:30S 36°48' E 174°49'3 2.8
2014-Apr-15 18:33S 36°45' E 174°49'6 4.9
2014-Apr-15 17:25S 36°51' E 174°47'0 0.0
2014-Apr-15 03:33S 36°51' E 174°47'3 2.7
2014-Apr-15 02:34S 36°49' E 174°50'3 0.3
2014-Apr-14 16:33S 36°46' E 174°49'  

Dump ship's entire track history

sailing weather and tide predictions

Pilot Vessel Akarana — ZMT2938 — position and weather